PRAETORIAN SDA_605

基本信息
目录编号:
65569
目录名称:
PRAETORIAN SDA_606
国际标识:
2025-203E
轨道中心:
EARTH
卫星名称:
PRAETORIAN SDA_605
卫星全名:
PRAETORIAN SDA_605
卫星状态:
在轨 (已飞行40 天)
发射日期:
2025-09-10 UTC
国别 :
美国 (US)
星等 :
--
轨道信息
数据来源 国际轨道数据
星历时间: 2025-10-20T22:15:12+0800
9小时前
查看轨道信息
半长轴: 7325.432km
偏心率: 0.0007819
轨道倾角: 81.305°
近地点辐角 118.063°
升交点赤经 232.736°
平近点角 242.132°
近地点: 941.569km
远地点: 953.025km
周期: 103.994分钟
每日圈数: 13.846913
详细信息
使用方式:
暂无
2D轨道图
3D轨道图
轨道高度分析图
轨道倾角分析图
轨道综合分析图
查看轨道综合分析图